Home   Weather   Monrovia   Past weeks

Flag for Liberia Past Weather in Monrovia, Liberia — Yesterday and Last 2 Weeks

Now
75 °F

Thunderstorms. Mostly cloudy.


Feels Like: 74 °F
Forecast: N/A
Wind: No wind

Location: Roberts Field

Current Time: Sep 29, 2016 at 3:27:09 PM

Latest Report: Sep 29, 2016 at 3:00 PM


Visibility: 4 mi

Pressure: 29.86 "Hg

Humidity: 94%

Dew Point: 73 °F

Location of MonroviaLocation

Past Weather in Monrovia — Graph

°F

Monrovia Temperature Yesterday

Maximum temperature yesterday: 86 °F (at 1:30 PM)
Minimum temperature yesterday: 75 °F (at 5:00 AM)
Average temperature yesterday: 79 °F

High & Low Weather Summary for the Past Weeks

 TemperatureHumidityPressure
High88 °F (Sep 17, 2:00 PM)100% (Sep 24, 11:00 PM)30.01 "Hg (Sep 24, 11:00 PM)
Low73 °F (Sep 15, 3:30 AM)66% (Sep 17, 2:00 PM)29.80 "Hg (Sep 25, 3:30 PM)
Average79 °F89%29.91 "Hg
* Reported Sep 14 2:00 PM — Sep 29 2:00 PM, Monrovia, Weather by CustomWeather, © 2016

Note: Actual official high and low records may vary slightly from our data, if they occured in-between our weather recording intervals... More about our weather records

Advertising

Monrovia Weather History for the Previous 24 Hours

Scroll right to see more
 ConditionsComfort  
Time TempWeatherWind HumidityBarometerVisibility
2:00 PM
Thu, Sep 29
75 °FThunderstorms. Mostly cloudy.No wind94%29.89 "Hg4 mi
1:30 PM75 °FThunderstorms. Mostly cloudy.No wind94%29.89 "Hg4 mi
12:30 PM75 °FThunderstorms. Mostly cloudy.3 mph94%29.95 "Hg4 mi
12:00 PM75 °FRain. Mostly cloudy.9 mph94%29.98 "Hg2 mi
11:30 AM77 °FRain. Broken clouds.No wind94%29.98 "Hg3 mi
11:00 AM77 °FDrizzle. Broken clouds.No wind94%29.95 "Hg4 mi
10:30 AM79 °FDrizzle. Partly sunny.No wind94%29.95 "Hg4 mi
10:00 AM79 °FPartly sunny.No wind94%29.95 "HgN/A
9:30 AM79 °FPartly sunny.No wind94%29.95 "HgN/A
9:00 AM77 °FPartly sunny.No wind94%29.95 "HgN/A
8:30 AM77 °FPartly sunny.No wind94%29.92 "HgN/A
8:00 AM77 °FPartly sunny.No wind94%29.92 "HgN/A
7:30 AM75 °FPartly sunny.No wind94%29.92 "HgN/A
7:00 AM75 °FPassing clouds.No wind94%29.92 "HgN/A
6:30 AM75 °FPassing clouds.No wind94%29.89 "HgN/A
6:00 AM77 °FPassing clouds.No wind94%29.89 "HgN/A
5:30 AM77 °FPassing clouds.No wind94%29.89 "HgN/A
5:00 AM77 °FPassing clouds.No wind94%29.86 "HgN/A
4:30 AM77 °FPassing clouds.No wind94%29.86 "HgN/A
4:00 AM77 °FPassing clouds.No wind94%29.86 "HgN/A
3:30 AM77 °FPassing clouds.No wind94%29.86 "HgN/A
2:00 AM77 °FPassing clouds.No wind94%29.89 "HgN/A
12:30 AM77 °FPassing clouds.No wind94%29.92 "HgN/A
12:00 AM77 °FPassing clouds.No wind94%29.92 "HgN/A
11:30 PM
Wed, Sep 28
77 °FRain. Passing clouds.No wind94%29.95 "HgN/A
11:00 PM77 °FLight rain. Passing clouds.No wind94%29.92 "Hg6 mi
10:30 PM77 °FLight rain. Passing clouds.No wind94%29.92 "Hg5 mi
10:00 PM77 °FLight rain. Passing clouds.No wind94%29.92 "Hg5 mi
9:30 PM77 °FLight rain. Passing clouds.9 mph94%29.92 "Hg4 mi
6:00 PM81 °FPartly sunny.8 mph84%29.86 "HgN/A
5:30 PM82 °FPartly sunny.9 mph79%29.83 "HgN/A
5:00 PM82 °FPartly sunny.No wind84%29.83 "HgN/A
4:00 PM84 °FPartly sunny.10 mph74%29.83 "HgN/A
3:30 PM82 °FPartly sunny.6 mph84%29.83 "HgN/A
3:00 PM82 °FWarm.5 mph79%29.83 "HgN/A
Weather by CustomWeather, © 2016

See weather overviewHow to use our weather pages